RH
15 16 17 21 29 24 30 60 62 52 44 38 40 33 32 32 33 26 26 31 36 40 58 74 80 78 79 84 82 72 75 70 67 62 56 56 55 56 54 51 49 49 49 46 44 43 41 39 38
13 14 15 14 18 30 38 78 57 53 40 40 38 37 33 33 33 31 28 28 22 26 29 48 53 73 83 79 82 85 74 70 63 60 57 54 52 51 47 47 49 49 49 48 46 45 46 43 39
14 13 13 13 13 24 54 99 73 54 36 42 37 40 34 36 34 30 30 31 24 23 27 29 32 45 75 76 80 83 83 76 74 69 66 58 52 49 47 49 50 50 53 51 50 51 49 45 42
12 12 12 12 13 17 51 99 96 66 43 36 40 39 35 37 38 30 29 32 31 34 41 43 34 36 39 54 69 77 81 81 77 74 70 71 64 60 59 57 57 61 65 60 56 54 49 52 44
7 8 9 10 12 14 37 93 94 86 54 33 32 35 34 36 41 35 34 29 44 53 65 76 58 48 42 40 29 54 80 80 74 78 79 73 70 67 69 71 74 75 66 68 71 67 58 52 42
5 6 7 9 12 14 22 81 86 92 68 52 39 32 32 33 29 28 37 34 44 74 86 69 70 67 95 85 49 42 50 78 82 80 85 85 81 83 83 86 82 82 81 84 78 71 60 52 47
4 5 6 9 11 13 18 37 69 86 73 55 52 35 38 29 29 47 44 47 61 100 65 67 69 90 100 87 75 62 47 52 74 73 74 85 87 87 86 77 76 66 74 85 77 67 56 51 49
3 4 6 7 11 13 15 19 41 72 88 60 52 40 36 62 35 48 38 60 56 73 87 86 89 99 100 100 98 99 100 89 71 69 60 59 71 67 62 70 72 56 60 67 61 60 55 54 59
2 3 5 7 10 13 13 15 23 44 88 77 65 58 38 46 38 34 27 48 73 87 85 86 95 100 100 100 100 100 100 100 84 89 88 81 68 66 66 72 61 58 69 71 63 57 53 53 51
2 3 4 6 8 11 12 14 17 27 68 82 64 88 45 47 53 46 34 30 43 38 59 58 84 85 98 100 100 100 100 100 100 99 99 99 88 84 82 76 63 73 74 70 66 60 51 50 38
2 2 4 5 8 10 11 14 14 18 34 75 67 75 51 79 94 47 63 73 55 36 35 60 85 78 100 100 100 100 100 100 100 100 100 100 100 98 99 97 90 83 82 72 68 62 50 32 26
2 2 2 4 7 11 11 14 14 15 22 46 69 72 62 66 91 76 40 53 71 58 48 59 72 71 94 100 100 100 100 98 100 90 90 85 82 86 86 80 76 77 71 63 59 47 30 25 26
2 2 2 3 6 9 10 12 14 14 18 37 54 68 63 79 72 96 100 59 83 88 59 49 56 52 73 88 84 100 100 98 94 98 86 81 76 73 70 71 68 64 57 51 40 25 24 22 25
2 2 2 3 5 8 9 11 13 14 15 32 51 64 56 35 100 100 79 98 98 88 97 89 76 60 65 65 55 80 80 86 99 98 84 76 75 72 69 69 62 56 51 26 24 23 21 22 38
3 2 2 3 4 7 8 8 11 12 15 24 37 58 54 34 88 100 93 100 60 56 55 55 78 78 58 60 46 50 59 72 90 87 75 71 70 58 56 55 54 45 29 42 77 59 38 38 41
4 3 2 3 4 6 8 9 13 13 14 18 37 46 49 94 100 98 91 64 74 89 62 65 96 100 83 63 44 57 61 75 90 79 64 60 52 58 72 52 37 37 87 81 64 45 43 46 52
4 4 3 2 3 5 9 14 13 11 13 16 28 39 40 100 99 79 59 79 100 100 100 100 100 100 100 81 62 59 53 64 64 58 56 53 70 68 64 68 49 61 100 100 61 50 58 52 52
7 4 4 3 3 4 10 12 10 10 12 14 20 28 27 100 82 86 100 100 95 100 100 100 99 97 100 91 76 56 44 46 53 53 55 80 87 77 85 66 90 100 81 75 48 67 67 54 51
12 6 5 5 4 4 7 10 10 11 10 14 18 18 25 100 76 98 92 100 98 84 100 100 100 99 75 78 79 68 51 48 45 52 89 100 100 91 62 90 100 99 85 70 65 71 73 53 41
14 10 7 7 4 4 5 8 10 10 10 13 15 16 37 74 93 100 100 100 100 100 100 100 94 90 100 86 78 75 81 73 93 100 100 78 44 44 92 100 89 89 80 78 55 64 66 48 40
16 16 10 7 6 4 4 6 8 9 10 12 14 15 44 58 100 100 100 75 91 100 88 84 73 89 66 100 100 97 100 100 100 100 77 52 52 86 100 93 71 53 54 79 60 54 47 42 37
25 16 16 10 8 5 5 5 8 8 10 10 14 15 71 50 100 100 97 99 100 100 99 99 93 89 91 92 100 100 100 69 60 53 46 51 84 100 100 100 94 68 44 59 65 61 60 66 82
35 24 17 15 10 8 5 6 5 9 9 10 13 14 48 49 100 100 100 100 100 100 100 100 88 100 96 99 100 100 100 70 43 39 52 53 95 100 100 85 86 84 64 57 94 84 98 95 78
62 35 21 18 15 10 7 5 6 8 9 9 11 13 40 49 77 100 100 93 100 98 100 100 100 98 100 100 100 100 100 100 86 68 76 79 100 100 98 99 100 96 100 83 100 100 100 99 99
87 46 35 21 18 14 10 6 5 7 8 8 10 13 42 51 81 93 91 100 100 92 100 100 100 97 100 100 100 100 100 100 100 100 100 100 100 100 92 98 100 99 100 97 77 78 93 100 94
64 83 40 34 21 18 13 9 5 6 8 8 9 12 43 51 82 100 100 100 89 98 100 100 100 100 100 95 88 100 100 100 100 100 100 100 100 100 100 94 87 100 85 84 100 100 100 100 100
46 79 82 42 29 21 18 11 7 5 7 9 8 10 35 49 69 88 100 100 50 58 91 98 100 100 100 100 100 100 100 100 100 100 100 100 100 100 91 100 100 93 72 81 90 98 100 89 98
49 51 82 76 43 28 22 16 10 6 7 9 10 9 11 21 25 36 99 60 67 84 100 97 100 100 100 100 100 100 100 100 97 100 100 100 100 100 98 100 83 87 95 86 93 81 63 69 100
53 51 48 87 63 43 27 23 15 11 6 8 10 9 9 12 15 26 83 64 85 76 100 100 100 100 100 95 100 100 100 95 97 88 92 92 100 100 100 95 86 89 100 100 100 100 100 100 100
50 52 49 52 84 55 48 26 24 15 10 7 9 11 10 10 13 20 38 78 83 71 87 100 100 100 100 100 89 79 70 75 99 100 100 97 80 69 78 99 100 100 100 97 87 98 96 98 93
Wind_Speed
60 61 62 65 61 53 49 47 55 55 56 51 47 48 50 47 44 47 41 42 38 38 39 39 37 35 34 32 30 28 26 25 25 24 23 22 21 21 22 23 23 24 25 27 29 30 31 32 32
62 63 64 62 63 52 51 52 54 61 57 52 49 49 49 49 49 48 42 43 40 39 39 39 39 39 37 36 34 33 32 29 28 27 27 26 25 25 25 24 24 25 28 30 31 32 34 35 35
73 70 70 66 59 55 56 59 61 65 58 53 53 51 50 49 51 50 44 45 44 41 39 39 40 41 41 41 38 37 36 34 32 31 30 29 28 28 27 27 27 27 31 33 35 36 38 38 37
84 81 76 69 63 61 62 68 69 68 59 56 54 55 52 50 52 49 45 46 46 44 42 40 40 38 40 44 44 41 38 36 35 34 33 32 31 30 30 30 31 32 35 38 38 40 39 40 39
90 86 82 70 68 62 69 74 73 69 61 57 57 56 52 54 54 49 47 46 43 41 42 43 41 40 39 42 43 43 43 40 38 35 34 34 32 31 32 34 35 38 39 40 41 42 42 40 39
80 87 82 77 72 70 74 82 80 74 67 61 60 58 53 52 52 49 49 47 46 44 46 44 42 40 36 44 42 40 42 42 40 39 37 37 36 36 36 37 38 39 40 40 43 43 41 40 37
67 72 81 83 79 75 77 88 84 79 74 68 64 59 53 54 51 51 47 49 49 47 50 45 39 41 36 37 39 41 39 42 42 41 41 39 39 38 38 38 38 38 38 40 42 42 40 36 35
59 67 73 83 88 83 83 89 88 82 73 73 67 62 55 55 54 54 48 47 46 48 50 47 43 42 40 39 38 35 35 40 40 41 42 42 42 41 40 38 38 39 40 40 39 38 37 36 34
48 58 70 79 92 90 88 87 91 85 78 73 66 65 60 54 50 51 50 48 48 49 47 47 38 45 48 45 43 42 40 41 43 42 42 42 41 41 40 39 39 39 38 40 38 39 36 34 35
43 52 65 78 91 95 92 90 88 88 83 74 68 66 60 55 52 50 51 49 51 50 49 47 47 47 47 44 45 44 44 38 38 39 40 39 42 40 40 39 40 41 40 39 38 38 37 35 32
38 50 60 75 86 96 94 92 89 85 86 80 71 66 63 52 55 52 49 48 49 48 50 47 48 49 46 45 44 44 43 46 47 45 39 38 41 44 42 42 43 42 40 39 36 37 33 28 27
31 42 53 70 84 98 98 95 91 86 86 83 76 65 62 55 52 56 55 52 51 50 49 49 49 47 45 47 47 46 48 48 49 50 48 48 49 49 49 47 45 41 40 38 38 32 28 27 26
25 34 49 62 78 94 100 98 95 87 83 83 77 72 55 45 37 54 54 54 50 49 49 46 48 45 47 47 51 51 52 51 49 48 47 44 42 43 45 44 41 40 41 37 33 30 31 32 30
21 25 42 56 74 87 98 101 97 89 84 83 81 75 66 49 51 47 56 52 51 52 52 49 50 46 50 51 51 51 51 50 49 47 46 43 42 41 40 40 41 41 38 35 36 34 35 35 32
20 17 32 47 63 82 91 95 92 93 86 84 85 78 70 65 63 54 60 55 52 55 54 52 53 49 46 50 47 43 47 49 47 47 45 43 40 40 39 38 40 37 38 41 37 36 36 36 35
25 15 21 39 53 77 85 87 101 97 89 86 85 82 73 71 70 71 58 49 54 43 34 41 55 58 49 48 47 44 45 47 49 47 46 39 36 36 37 36 36 38 43 44 43 39 41 42 41
33 20 14 28 44 67 85 100 102 98 92 91 86 85 83 78 65 55 44 40 54 49 37 41 49 59 56 48 46 44 44 43 44 44 41 39 41 41 39 40 42 43 40 41 41 42 43 44 45
46 24 16 18 37 60 82 94 93 95 90 89 85 86 86 76 57 51 47 55 55 50 54 45 54 54 56 51 46 44 43 42 43 42 42 43 46 44 47 48 49 51 50 49 47 47 48 47 44
55 36 17 15 26 51 71 85 89 94 89 90 85 85 83 82 59 54 60 68 52 52 56 48 52 56 54 51 49 46 46 45 43 44 46 48 50 50 51 52 49 48 44 47 52 51 52 53 51
63 46 26 15 18 37 58 77 86 92 92 93 91 86 89 70 54 47 53 57 50 63 53 48 45 55 62 59 53 48 47 46 47 47 49 51 54 54 54 55 53 49 50 48 50 57 59 58 55
64 57 37 20 14 24 46 70 82 89 94 96 94 89 94 82 65 59 61 61 53 47 60 55 53 51 58 64 58 55 53 56 58 58 55 56 57 58 59 60 60 58 53 54 59 56 60 65 62
59 61 48 29 16 15 33 59 79 86 93 97 97 91 96 88 80 72 69 66 49 51 52 62 60 61 60 61 64 63 62 64 65 64 59 60 62 62 63 62 60 61 60 61 66 67 67 57 61
52 57 57 39 23 12 22 43 63 80 90 98 100 96 97 94 93 90 72 57 54 60 42 43 53 48 47 53 60 65 68 67 68 66 64 66 65 62 66 71 63 63 64 62 65 65 58 62 66
49 51 54 53 34 18 14 28 49 75 88 97 103 100 107 98 98 95 88 75 59 61 61 53 45 61 55 56 57 62 66 70 73 70 72 70 65 63 65 57 68 66 66 62 55 58 67 71 75
45 43 48 52 46 29 13 19 36 63 85 95 104 104 108 108 109 103 99 89 74 72 69 65 58 49 51 56 56 58 60 64 69 66 69 66 65 67 65 64 73 67 68 72 75 77 78 79 81
42 43 39 44 49 41 20 12 26 48 74 92 105 109 117 117 114 109 96 98 86 87 77 73 54 46 61 49 50 50 61 61 69 65 73 69 73 75 74 74 76 76 76 74 76 82 83 83 83
38 40 41 41 45 47 35 12 15 35 59 88 99 109 116 115 113 110 104 101 84 93 93 77 59 63 57 53 64 68 71 57 69 72 73 77 83 83 83 78 77 83 82 83 81 79 85 88 93
32 36 36 37 36 41 42 25 10 21 45 76 94 106 112 113 109 108 111 100 99 92 92 81 69 68 75 67 68 69 65 73 74 74 73 80 83 83 88 91 88 84 86 87 90 94 96 100 102
27 31 35 34 33 32 38 38 18 10 32 56 87 98 109 113 112 113 117 109 110 102 92 92 86 79 71 78 79 82 79 80 79 80 79 81 80 87 90 91 94 97 96 94 96 101 103 102 97
27 28 30 33 31 28 30 33 32 11 16 40 70 95 102 112 113 111 116 124 124 114 113 103 98 98 95 85 92 89 93 90 88 84 88 90 94 94 92 88 91 95 97 96 97 93 94 98 102
Wind_Direction
257 255 253 248 245 242 228 229 234 229 225 222 215 218 222 227 230 234 225 229 228 231 233 233 235 237 240 243 247 248 248 252 255 259 264 268 275 281 287 292 296 300 302 303 306 306 307 308 310
260 256 251 247 243 236 226 231 235 232 225 220 216 221 221 225 226 231 226 229 229 231 234 235 238 239 240 243 245 248 250 252 256 261 265 268 271 276 281 287 291 295 299 300 302 304 304 305 305
268 262 253 247 241 232 226 230 233 233 222 219 217 224 223 226 229 229 228 227 229 231 232 235 238 240 240 242 245 247 251 253 256 260 264 267 271 274 279 283 286 291 296 297 301 300 301 301 303
264 261 254 248 241 227 221 230 229 231 224 219 221 220 222 228 230 229 230 231 230 230 235 238 238 242 245 247 246 248 250 253 255 259 263 267 271 274 279 282 286 289 294 296 297 297 298 302 303
259 253 249 242 237 228 219 228 229 230 224 220 220 219 220 222 226 227 229 232 233 234 235 238 240 243 245 248 250 248 249 253 256 259 262 265 267 272 278 282 285 291 293 294 295 298 300 300 303
253 246 241 237 231 227 218 224 225 226 222 220 223 221 218 221 222 224 228 230 231 231 235 240 240 243 244 250 252 252 251 252 254 257 259 263 266 272 276 281 286 289 292 293 295 297 298 299 301
246 242 235 229 227 224 219 222 223 224 223 219 220 220 220 221 221 222 223 229 231 226 234 237 239 236 238 249 254 256 255 256 257 259 259 262 266 271 275 281 285 288 289 288 292 294 296 299 300
245 237 231 224 223 220 220 221 221 221 222 224 221 220 216 220 221 221 221 224 228 232 233 237 238 235 239 246 251 258 261 262 262 264 265 265 267 273 278 281 282 285 286 288 290 293 296 296 299
245 233 227 221 221 219 219 218 220 218 220 223 223 227 219 220 224 229 228 225 231 234 236 236 233 239 238 247 253 252 256 259 263 264 269 271 274 280 280 279 282 285 288 289 293 295 294 296 301
248 235 224 219 219 218 217 218 219 216 218 218 218 224 222 225 226 230 235 237 232 231 231 233 236 242 246 244 244 249 247 257 262 265 269 270 276 282 283 283 284 287 290 289 292 292 296 299 301
249 237 225 219 218 219 217 218 217 216 215 217 215 221 222 221 225 227 230 233 241 243 237 233 236 240 244 242 245 248 250 248 255 258 260 268 270 272 277 282 285 287 287 290 290 294 295 295 299
258 240 229 220 216 216 218 217 217 215 214 216 216 217 220 219 228 236 235 232 236 238 238 237 239 243 241 239 241 250 254 256 257 259 264 267 269 272 274 276 280 284 285 286 286 286 282 290 292
270 245 227 221 215 215 216 217 217 213 213 213 213 214 211 207 234 245 244 232 236 241 244 240 237 240 241 241 243 247 253 258 260 263 266 268 269 272 273 274 277 278 283 282 280 276 279 285 287
290 254 231 222 215 214 215 216 215 213 211 210 209 210 208 193 190 227 243 242 243 246 248 249 240 243 243 245 249 246 252 256 259 262 266 267 269 271 272 273 275 279 277 276 275 279 279 285 287
311 264 238 222 219 213 217 214 215 213 209 208 207 206 204 204 208 223 232 234 242 243 245 250 251 243 248 251 257 258 260 258 259 264 267 268 269 270 272 273 274 274 273 273 281 281 280 283 287
335 288 244 224 218 215 213 214 213 213 207 207 205 203 201 200 204 208 226 233 241 249 258 254 251 249 248 250 257 255 258 258 261 265 267 266 265 267 272 272 271 272 282 282 283 287 288 291 290
356 322 267 229 218 215 211 210 212 213 204 206 202 201 199 195 208 211 207 228 239 247 252 256 257 256 254 252 251 252 254 255 257 259 259 263 268 268 268 272 273 274 274 275 279 280 285 288 288
358 348 306 247 222 214 212 211 209 212 203 206 202 200 198 190 191 188 187 235 236 246 253 259 255 253 253 245 244 244 246 249 252 255 260 265 271 271 274 274 274 279 276 277 279 278 282 288 289
4 359 334 285 232 217 211 211 209 210 202 204 203 199 197 190 191 190 192 196 230 248 249 247 251 250 251 248 247 244 251 253 254 258 260 262 266 269 271 272 272 275 277 280 275 276 279 283 286
8 3 356 323 253 224 215 211 210 207 202 201 203 198 189 183 180 193 185 200 218 238 238 249 243 251 255 253 251 254 252 255 254 253 262 263 266 269 273 269 269 269 278 278 280 281 282 283 289
5 8 3 347 286 234 217 214 210 207 203 198 202 198 188 184 181 183 190 204 212 205 236 244 250 258 249 248 247 249 248 254 257 260 262 262 265 268 269 268 268 269 271 276 281 284 286 283 290
4 5 9 359 334 258 222 216 212 206 204 197 201 200 185 191 184 187 191 196 213 217 240 248 248 253 254 249 252 256 259 260 259 260 260 264 267 266 263 266 272 275 276 278 279 285 288 287 297
3 4 6 9 353 311 236 225 215 210 205 196 199 199 184 189 186 187 189 192 206 204 225 240 239 248 257 255 256 262 260 257 259 260 261 264 266 264 263 265 276 281 277 280 280 288 287 287 291
355 3 5 9 6 341 271 229 216 211 206 198 198 198 188 192 189 194 191 191 199 203 208 228 246 250 257 254 254 265 264 260 259 260 260 264 261 265 264 267 267 275 279 282 278 279 284 286 287
347 357 5 5 9 4 322 246 219 214 206 201 196 199 191 194 198 200 199 204 199 205 201 207 224 235 248 257 253 258 260 260 257 259 259 256 261 260 263 263 268 270 274 278 280 280 281 284 288
341 348 2 6 6 9 359 289 231 216 208 204 196 199 192 199 203 205 204 206 205 209 206 203 208 224 244 244 251 254 257 253 255 253 258 251 252 256 262 265 266 267 268 276 281 280 278 285 287
336 342 349 2 5 7 5 338 256 219 211 206 202 199 196 199 204 207 205 208 210 214 215 206 209 218 225 218 227 240 235 245 252 253 260 256 254 256 256 263 267 270 272 272 274 279 282 285 286
330 335 343 350 5 3 6 3 310 233 212 208 207 201 201 203 205 207 205 204 210 209 208 211 215 218 224 225 227 230 233 242 249 254 255 256 259 263 257 261 267 273 274 276 280 280 279 283 286
324 329 334 342 351 5 5 5 358 268 218 211 208 207 203 205 206 208 205 204 211 211 210 215 217 220 219 223 220 231 241 244 249 253 255 259 263 263 264 268 271 274 278 279 279 280 280 283 284
321 322 328 331 338 351 2 7 4 341 236 216 211 209 207 207 207 209 210 209 214 218 220 223 222 227 226 232 228 233 240 244 251 257 261 263 268 267 269 273 273 277 277 280 282 281 282 283 286